Weather History for KDXR - July, 2014

Change the Weather History Date:

Sunday, July 6, 2014

  Actual Average Record
Temperature  
Mean Temperature 68 °F -  
Max Temperature 82 °F 82 °F 100 °F (2010)
Min Temperature 54 °F 58 °F 44 °F (1979)
Cooling Degree Days 3    
Growing Degree Days 18 (Base 50)    
Moisture  
Dew Point 54 °F    
Average Humidity 61    
Maximum Humidity 93    
Minimum Humidity 36    
Precipitation  
Precipitation 0.00 in - - ()
Sea Level Pressure  
Sea Level Pressure 30.02 in    
Wind  
Wind Speed 4 mph (SW)    
Max Wind Speed 16 mph    
Max Gust Speed 26 mph    
Visibility 10 miles    
Events      
Averages and records for this station are not official NWS values.
T = Trace of Precipitation, MM = Missing Value Source: NWS Daily Summary

Daily Weather History Graph

Daily Weather History Graph

Search for Another Location

Airport or City:

Trip Planner

Search our weather history database for the weather conditions in past years. The results will help you decide how hot, cold, wet, or windy it might be!

Date:

Astronomy

Jul. 06, 2014 Rise Set
Actual Time 5:27 AM EDT 8:30 PM EDT
Civil Twilight 4:53 AM EDT 9:03 PM EDT
Nautical Twilight 4:10 AM EDT 9:46 PM EDT
Astronomical Twilight 3:20 AM EDT 10:36 PM EDT
Moon 2:25 PM EDT (7/6) 12:47 AM EDT (7/6)
Length of Visible Light 16h 09m
Length of Day
15h 02m
Waxing Gibbous, 62% of the Moon is Illuminated
Jul 6
Waxing Gibbous
Jul 12
Full
Jul 18
Last Quarter
Jul 26
New
Aug 3
First Quarter

Hourly Weather History & Observations

Time (EDT) Temp. Heat Index Dew Point Humidity Pressure Visibility Wind Dir Wind Speed Gust Speed Precip Events Conditions
12:53 AM 59.0 °F - 53.1 °F 81% 30.10 in 10.0 mi Calm Calm - N/A   Clear
1:53 AM 55.9 °F - 52.0 °F 87% 30.09 in 10.0 mi Calm Calm - N/A   Clear
2:53 AM 55.0 °F - 53.1 °F 93% 30.09 in 10.0 mi Calm Calm - N/A   Clear
3:53 AM 54.0 °F - 51.1 °F 90% 30.08 in 10.0 mi Calm Calm - N/A   Clear
4:53 AM 55.0 °F - 52.0 °F 89% 30.08 in 10.0 mi Calm Calm - N/A   Clear
5:53 AM 55.0 °F - 52.0 °F 89% 30.09 in 10.0 mi Calm Calm - N/A   Clear
6:20 AM 57.0 °F - 53.1 °F 87% 30.09 in 10.0 mi Calm Calm - N/A   Partly Cloudy
6:53 AM 60.1 °F - 55.0 °F 83% 30.08 in 10.0 mi Calm Calm - N/A   Clear
7:53 AM 66.9 °F - 55.0 °F 66% 30.09 in 10.0 mi WSW 9.2 mph - N/A   Clear
8:53 AM 70.0 °F - 54.0 °F 57% 30.09 in 10.0 mi SW 10.4 mph - N/A   Clear
9:53 AM 73.9 °F - 54.0 °F 50% 30.07 in 10.0 mi WSW 8.1 mph - N/A   Clear
10:53 AM 75.9 °F - 51.1 °F 42% 30.07 in 10.0 mi WSW 10.4 mph - N/A   Clear
11:53 AM 78.1 °F - 53.1 °F 42% 30.04 in 10.0 mi WSW 16.1 mph 26.5 mph N/A   Clear
12:53 PM 79.0 °F - 54.0 °F 42% 30.02 in 10.0 mi WSW 9.2 mph - N/A   Clear
1:53 PM 80.1 °F - 52.0 °F 38% 30.00 in 10.0 mi WSW 13.8 mph 20.7 mph N/A   Clear
2:53 PM 81.0 °F - 52.0 °F 36% 29.99 in 10.0 mi WSW 10.4 mph 18.4 mph N/A   Clear
4:53 PM 82.0 °F 81.4 °F 55.0 °F 39% 29.96 in 10.0 mi SSW 16.1 mph - N/A   Clear
5:53 PM 81.0 °F 80.5 °F 54.0 °F 39% 29.94 in 10.0 mi WSW 11.5 mph - N/A   Clear
6:53 PM 80.1 °F 80.0 °F 54.0 °F 40% 29.93 in 10.0 mi SW 8.1 mph - N/A   Clear
7:53 PM 77.0 °F - 54.0 °F 45% 29.93 in 10.0 mi SW 4.6 mph - N/A   Clear
8:53 PM 69.1 °F - 57.0 °F 65% 29.93 in 10.0 mi SW 3.5 mph - N/A   Clear
9:53 PM 75.0 °F - 54.0 °F 48% 29.94 in 10.0 mi SW 9.2 mph - N/A   Clear
10:53 PM 73.0 °F - 55.0 °F 53% 29.94 in 10.0 mi SSW 6.9 mph - N/A   Clear
11:53 PM 73.0 °F - 57.0 °F 57% 29.94 in 10.0 mi South 5.8 mph - N/A   Clear